Regional Weather Roundup
Issued by NWS

Home | Current Version | Previous Version | Text Only | Print | Product List | Glossary On
Versions: 1 2 3 4 5 6 7 8 9 10 11 12 13 14 15 16 17 18 19 20 21 22 23 24 25 26 27 28 29 30 31 32 33 34 35 36 37 38 39 40 41 42 43 44 45 46 47 48 49 50
000
ASUS43 KDTX 291610
RWRMI
MICHIGAN HOURLY REGIONAL WEATHER ROUNDUP
NATIONAL WEATHER SERVICE DETROIT/PONTIAC MI
1100 AM EST THU JAN 29 2015

NOTE: "FAIR" INDICATES FEW OR NO CLOUDS BELOW 12,000 FEET WITH NO
SIGNIFICANT WEATHER AND/OR OBSTRUCTION TO VISIBILITY.

MIZ047>049-052>055-059>063-066>070-074>076-081>083-291700-
SOUTHEAST LOWER MICHIGAN

CITY           SKY/WX    TMP DP  RH WIND       PRES   REMARKS
ADRIAN         CLOUDY    33  27  78 SW5       29.74F
ALMA           LGT SNOW  28  26  91 CALM      29.76S
ANN ARBOR      CLOUDY    32  26  78 CALM      29.74F
BAD AXE        LGT SNOW  27  24  87 S7        29.76F
DETROIT CITY   CLOUDY    34  24  67 S7        29.75F
DETROIT        CLOUDY    33  26  75 S6        29.75F
FLINT          CLOUDY    33  23  66 S8        29.75S
GROSSE ILE     CLOUDY    34  28  80 S9        29.74F
HILLSDALE      CLOUDY    33  29  85 S5        29.71S
HOWELL         CLOUDY    31  25  80 S5        29.73S

CITY           SKY/WX    TMP DP  RH WIND       PRES   REMARKS
JACKSON        CLOUDY    32  26  78 SW3       29.73R
LAMBERTVILLE   CLOUDY    37  30  75 S6        29.75F
LANSING        CLOUDY    32  25  75 CALM      29.75R
LAPEER         NOT AVBL
MASON          CLOUDY    31  24  77 CALM      29.73S
MONROE         CLOUDY    36  28  75 S6        29.73F
MT. CLEMENS    CLOUDY    31  25  78 SE6       29.74F
PONTIAC        CLOUDY    30  22  72 S5        29.72F
PORT HOPE        N/A     27  21  78 VRB3      29.75F
PORT HURON     CLOUDY    30  21  69 S7        29.76F
TRI CITIES     LGT SNOW  29  24  82 N6        29.77S VSB 3/4
YPSILANTI      CLOUDY    35  26  69 S5        29.74F
$$
MIZ043>046-050>051-056>058-064>065-071>073-077>080-291700-
SOUTHWEST LOWER MICHIGAN

CITY           SKY/WX    TMP DP  RH WIND       PRES   REMARKS
BATTLE CREEK   CLOUDY    35  27  72 W3        29.74R
BENTON HARBOR  CLOUDY    34  32  92 NW14G24   29.78R
BIG RAPIDS     LGT SNOW  26  26  97 CALM      29.76R
COLDWATER      CLOUDY    35  28  77 SW5       29.73R
HOLLAND        HVY SNOW  33  28  81 NW3       29.78R VSB 1/4
GRAND RAPIDS   CLOUDY    31  27  85 CALM      29.76R FOG
KALAMAZOO      CLOUDY    34  26  72 CALM      29.74R
MARSHALL       CLOUDY    33  26  75 SW3       29.72R
MUSKEGON       LGT SNOW  31  26  82 NW7       29.80R
$$
MIZ016>042-291700-
NORTHERN LOWER MICHIGAN

CITY           SKY/WX    TMP DP  RH WIND       PRES   REMARKS
ALPENA         LGT SNOW  24  22  91 W3        29.78S FOG
BEAVER ISLAND  CLOUDY    29  28  93 CALM      29.79S FOG
BELLAIRE       LGT SNOW  27  24  91 CALM      29.79F VSB 1
CADILLAC       LGT SNOW  26  23  87 CALM      29.74S
CHARLEVOIX     LGT SNOW  27  25  94 SW3       29.82R
FRANKFORT      MIX PCPN  29  28  94 CALM      29.81R
GAYLORD        LGT SNOW  23  22  96 W7        29.74S VSB 3/4
GRAYLING       LGT SNOW  25  23  93 W3        29.76S
HARBOR SPRINGS LGT SNOW  27  24  89 CALM      29.79R
HOUGHTON LAKE  CLOUDY    24  21  88 W3        29.75S FOG
MANISTEE       CLOUDY    27  23  86 NW3       29.81R VSB 1
OSCODA         LGT SNOW  26  24  93 SW5       29.77S
PELLSTON       LGT SNOW  27  24  89 CALM      29.79S FOG
TRAVERSE CITY  LGT SNOW  27  25  92 CALM      29.78  FOG
$$
MIZ007>008-015-291700-
EASTERN UPPER MICHIGAN

CITY           SKY/WX    TMP DP  RH WIND       PRES   REMARKS
KINROSS        CLOUDY    27  25  93 W6        29.77S
MACKINAC ISLAN LGT SNOW  26  26  97 W6        29.77S
NEWBERRY       CLOUDY    26  25  98 SW5       29.77S FOG
S. S. MARIE    CLOUDY    25  22  88 CALM      29.77S FOG
$$
MIZ004>006-011>014-085-291700-
CENTRAL UPPER MICHIGAN

CITY           SKY/WX    TMP DP  RH WIND       PRES   REMARKS
MANISTIQUE     CLOUDY    30  29  97 NW7       29.80R FOG
ESCANABA       CLOUDY    30  25  80 NW13G18   29.84R
MENOMINEE      CLOUDY    30  27  86 N9G17     29.86R
SAWYER-GWINN   CLOUDY    28  25  86 N16G26    29.82R
$$
MIZ001>003-009>011-084-291700-
WESTERN UPPER MICHIGAN

CITY           SKY/WX    TMP DP  RH WIND       PRES   REMARKS
HOUGHTON       CLOUDY    27  23  85 N16       29.90R
COPPER HARBOR    N/A     24  19  81 NE28G44   29.91R
IRONWOOD       CLOUDY    27  21  80 NW23G31   29.98R
$$

ABBREVIATIONS USED IN REMARKS
   TC - TEMPERATURE IN CELSIUS
  WCI - WIND CHILL INDEX
   HX - HEAT INDEX
  VSB - VISIBILITY




USA.gov is the U.S. government's official web portal to all federal, state and local government web resources and services.